Location: Unspecified
(50.7693°N, 0.0000°E)
Time: 04:31:16
(UTC+00:00)

A-11 Canister half - Pass Details

Date: 19 June 2019
Orbit: 1526 x 1683 km, 47.3° (Epoch: 16 August)

Event Time Altitude Azimuth Distance (km) Brightness Sun altitude
Rises 03:50:45 0° 194° (SSW) 4,739 11.1 -0.3°
Reaches altitude 10° 03:54:39 10° 181° (S) 3,736 10.7 0.2°
Maximum altitude 04:01:29 23° 133° (SE) 2,814 10.6 1.0°
Drops below altitude 10° 04:08:14 10° 86° (E) 3,699 12.1 1.9°
Sets 04:12:02 0° 73° (ENE) 4,681 13.3 2.4°
